FW6463 Weather Reports


time (UTC)temp
C
wind
direction
speed
KPH
gust
KPH
rain 1hr
cm
rain 24hr
cm
rain mn
cm
humidity
%
barometer
mb
20260508085021 3 157 3.2 4.8 0.00 0.00 0.00 93 1016.6
20260508084025 3 172 3.2 4.8 0.00 0.00 0.00 93 1016.6
20260508083049 3 159 3.2 4.8 0.00 0.00 0.00 93 1016.5
20260508082037 3 162 3.2 3.2 0.00 0.00 0.00 93 1016.4
20260508081021 3 176 3.2 4.8 0.00 0.00 0.00 93 1016.4
20260508080026 3 162 3.2 4.8 0.00 0.00 0.00 92 1016.4
20260508075025 3 170 3.2 4.8 0.00 0.00 0.00 92 1016.3
20260508074026 3 180 3.2 4.8 0.00 0.00 0.00 92 1016.3
20260508073017 4 158 0.0 3.2 0.00 0.00 0.00 90 1016.4
20260508072021 4 166 3.2 4.8 0.00 0.00 0.00 89 1016.3
20260508071026 5 167 1.6 4.8 0.00 0.00 0.00 87 1016.4
20260508070031 5 161 3.2 4.8 0.00 0.00 0.00 86 1016.3
20260508065018 5 172 3.2 4.8 0.00 0.00 0.00 85 1016.3
20260508064023 6 170 1.6 3.2 0.00 0.00 0.00 82 1016.3
20260508063027 6 177 3.2 6.4 0.00 0.00 0.00 81 1016.3
20260508062046 6 0.0 0.0 0.00 0.00 0.00 78 1016.4
20260508061019 7 181 1.6 3.2 0.00 0.00 0.00 75 1016.3
20260508060023 7 153 1.6 3.2 0.00 0.00 0.00 72 1016.3
20260508055023 8 165 1.6 3.2 0.00 0.00 0.00 70 1016.3
20260508054035 8 24 1.6 4.8 0.00 0.00 0.00 68 1016.3
20260508053020 9 338 4.8 11.3 0.00 0.00 0.00 68 1016.2
20260508052059 9 327 3.2 9.7 0.00 0.00 0.00 67 1016.2
20260508051037 10 307 3.2 6.4 0.00 0.00 0.00 67 1016.0
20260508050016 10 299 3.2 9.7 0.00 0.00 0.00 66 1015.8
20260508045041 10 308 6.4 14.5 0.00 0.00 0.00 66 1015.7
20260508044026 10 338 6.4 14.5 0.00 0.00 0.00 66 1015.6
20260508043030 11 315 9.7 17.7 0.00 0.00 0.00 65 1015.5
20260508042018 11 328 6.4 14.5 0.00 0.00 0.00 63 1015.2
20260508041022 11 309 9.7 14.5 0.00 0.00 0.00 63 1015.0
20260508040027 10 284 4.8 8.0 0.00 0.00 0.00 66 1014.7
20260508035032 8 276 3.2 6.4 0.00 0.00 0.00 70 1014.6
20260508034018 7 318 1.6 8.0 0.00 0.00 0.00 77 1014.5
20260508033024 7 161 1.6 3.2 0.00 0.00 0.00 82 1014.4
20260508032028 8 171 1.6 3.2 0.00 0.00 0.00 78 1014.4
20260508031033 8 191 0.0 1.6 0.00 0.00 0.00 78 1014.0
20260508030020 8 163 1.6 3.2 0.00 0.00 0.00 75 1014.0
20260508025024 8 174 3.2 3.2 0.00 0.00 0.00 76 1014.0
20260508024029 8 180 3.2 3.2 0.00 0.00 0.00 77 1014.0
20260508023016 9 169 3.2 3.2 0.00 0.00 0.00 77 1013.9
20260508022021 10 170 3.2 4.8 0.00 0.00 0.00 74 1013.9
20260508021025 10 178 3.2 4.8 0.00 0.00 0.00 69 1013.7
20260508020050 10 181 3.2 3.2 0.00 0.00 0.00 70 1013.5
20260508015016 10 192 3.2 6.4 0.00 0.00 0.00 71 1013.5
20260508014022 11 182 3.2 4.8 0.00 0.00 0.00 67 1013.5
20260508013028 11 183 1.6 3.2 0.00 0.00 0.00 65 1013.3
20260508012031 11 225 0.0 1.6 0.00 0.00 0.00 64 1013.2
20260508011018 12 248 0.0 3.2 0.00 0.00 0.00 62 1013.0
20260508010023 12 191 1.6 3.2 0.00 0.00 0.00 61 1013.0
20260508005027 13 201 1.6 3.2 0.00 0.00 0.00 57 1012.8
20260508004032 14 235 4.8 8.0 0.00 0.00 0.00 53 1012.7
20260508003019 14 277 4.8 8.0 0.00 0.00 0.00 51 1012.6
20260508002025 15 282 4.8 9.7 0.00 0.00 0.00 50 1012.5
20260508001028 15 333 8.0 11.3 0.00 0.00 0.00 50 1012.4
20260508000033 16 283 4.8 9.7 0.00 0.00 0.00 49 1012.2
20260507235041 16 298 6.4 9.7 0.00 0.00 0.00 48 1012.2
20260507234025 16 311 6.4 12.9 0.00 0.00 0.00 48 1012.2
20260507233030 17 321 8.0 12.9 0.00 0.00 0.00 47 1012.0
20260507232016 17 280 6.4 11.3 0.00 0.00 0.00 46 1011.9
20260507231021 17 283 8.0 11.3 0.00 0.00 0.00 46 1011.8
20260507230027 17 293 8.0 11.3 0.00 0.00 0.00 45 1011.7
20260507225030 19 299 8.0 14.5 0.00 0.00 0.00 42 1011.6
20260507224017 19 298 11.3 17.7 0.00 0.00 0.00 43 1011.6
20260507223022 20 303 11.3 16.1 0.00 0.00 0.00 42 1011.5
20260507222026 20 309 6.4 12.9 0.00 0.00 0.00 42 1011.5
20260507221025 18 315 9.7 11.3 0.00 0.00 0.00 44 1011.2
20260507220018 20 285 8.0 17.7 0.00 0.00 0.00 42 1011.2
20260507215023 20 295 8.0 11.3 0.00 0.00 0.00 42 1011.2
20260507214021 20 326 8.0 14.5 0.00 0.00 0.00 42 1011.2
20260507213019 20 287 4.8 11.3 0.00 0.00 0.00 41 1011.1
20260507212018 20 286 8.0 11.3 0.00 0.00 0.00 41 1011.3
20260507211017 20 349 8.0 12.9 0.00 0.00 0.00 41 1011.1
20260507210016 20 287 6.4 9.7 0.00 0.00 0.00 41 1011.3
20260507205033 20 310 8.0 12.9 0.00 0.00 0.00 40 1011.4
20260507204020 20 278 6.4 9.7 0.00 0.00 0.00 41 1011.4
20260507203024 20 322 8.0 14.5 0.00 0.00 0.00 43 1011.3
20260507202029 20 344 8.0 12.9 0.00 0.00 0.00 42 1011.3
20260507201015 21 300 9.7 14.5 0.00 0.00 0.00 41 1011.5
20260507200020 20 263 6.4 11.3 0.00 0.00 0.00 44 1011.7
20260507195025 20 261 6.4 11.3 0.00 0.00 0.00 43 1011.8
20260507194030 19 310 4.8 6.4 0.00 0.00 0.00 43 1011.9
20260507193016 20 292 8.0 11.3 0.00 0.00 0.00 42 1012.1
20260507192022 20 329 8.0 12.9 0.00 0.00 0.00 43 1012.2
20260507191026 20 296 6.4 14.5 0.00 0.00 0.00 43 1012.2
20260507190031 20 307 11.3 20.9 0.00 0.00 0.00 42 1012.2
20260507185017 19 240 4.8 9.7 0.00 0.00 0.00 44 1012.3
20260507184022 19 283 4.8 6.4 0.00 0.00 0.00 43 1012.5
20260507183027 19 278 8.0 14.5 0.00 0.00 0.00 44 1012.6
20260507182032 19 304 8.0 12.9 0.00 0.00 0.00 44 1012.7
20260507181018 18 312 8.0 12.9 0.00 0.00 0.00 45 1012.8
20260507180023 18 311 6.4 11.3 0.00 0.00 0.00 43 1013.2
20260507175028 18 271 9.7 19.3 0.00 0.00 0.00 44 1013.2
20260507174033 18 317 6.4 11.3 0.00 0.00 0.00 43 1013.2
20260507173019 18 296 6.4 11.3 0.00 0.00 0.00 43 1013.3
20260507172025 18 258 8.0 14.5 0.00 0.00 0.00 43 1013.5
20260507171029 18 291 8.0 14.5 0.00 0.00 0.00 45 1013.7
20260507170016 17 310 4.8 9.7 0.00 0.00 0.00 45 1014.0
20260507165020 18 281 8.0 16.1 0.00 0.00 0.00 46 1014.0
20260507164025 17 259 6.4 11.3 0.00 0.00 0.00 45 1014.1
20260507163031 16 201 4.8 8.0 0.00 0.00 0.00 47 1014.2
20260507162018 17 293 8.0 12.9 0.00 0.00 0.00 48 1014.4
20260507161023 16 266 4.8 8.0 0.00 0.00 0.00 46 1014.6
20260507160027 16 335 4.8 8.0 0.00 0.00 0.00 48 1014.6
20260507155031 16 275 8.0 12.9 0.00 0.00 0.00 48 1014.6
20260507154018 16 177 4.8 8.0 0.00 0.00 0.00 50 1014.7
20260507153024 16 275 6.4 8.0 0.00 0.00 0.00 50 1015.0
20260507152049 15 290 4.8 8.0 0.00 0.00 0.00 51 1015.3
20260507151033 15 285 4.8 9.7 0.00 0.00 0.00 51 1015.4
20260507150019 15 293 4.8 8.0 0.00 0.00 0.00 51 1015.7
20260507145104 14 213 4.8 8.0 0.00 0.00 0.00 51 1015.8
20260507144029 15 271 8.0 11.3 0.00 0.00 0.00 51 1015.9
20260507143016 14 347 8.0 12.9 0.00 0.10 0.00 51 1015.9
20260507142020 14 293 6.4 9.7 0.00 0.13 0.00 49 1016.0
20260507141026 13 258 6.4 8.0 0.00 0.18 0.00 49 1016.3
20260507140044 13 240 4.8 8.0 0.00 0.23 0.00 52 1016.4
20260507135017 13 264 3.2 8.0 0.00 0.28 0.00 52 1016.5
20260507134023 12 46 3.2 6.4 0.00 0.36 0.00 52 1016.6
20260507133020 12 317 3.2 6.4 0.00 0.46 0.00 54 1016.6
20260507132019 11 314 3.2 6.4 0.00 0.46 0.00 55 1016.5
20260507131018 11 295 4.8 6.4 0.00 0.51 0.00 55 1016.5
20260507130018 11 296 6.4 8.0 0.00 0.51 0.00 58 1016.4
20260507125015 11 296 4.8 8.0 0.00 0.51 0.00 57 1016.4
20260507124033 11 296 4.8 8.0 0.00 0.51 0.00 61 1016.4
20260507123019 11 282 6.4 8.0 0.00 0.51 0.00 59 1016.4
20260507122044 11 300 3.2 4.8 0.00 0.51 0.00 60 1016.5
20260507121028 10 302 4.8 8.0 0.00 0.51 0.00 59 1016.5
20260507120034 10 317 4.8 6.4 0.00 0.53 0.00 60 1016.4
20260507115040 10 301 3.2 6.4 0.00 0.53 0.00 62 1016.5
20260507114024 10 303 6.4 8.0 0.00 0.56 0.00 62 1016.5
20260507113030 10 314 4.8 8.0 0.00 0.56 0.00 61 1016.4
20260507112016 10 317 3.2 4.8 0.00 0.56 0.00 66 1016.3
20260507111042 10 315 0.0 3.2 0.00 0.56 0.00 65 1016.0
20260507110025 10 309 3.2 6.4 0.00 0.56 0.00 66 1015.9
20260507105112 9 287 1.6 4.8 0.00 0.56 0.00 67 1015.8
20260507104037 9 321 3.2 4.8 0.00 0.56 0.00 67 1015.7
20260507103022 9 349 3.2 6.4 0.00 0.56 0.00 68 1015.6
20260507102027 9 300 1.6 4.8 0.00 0.56 0.00 69 1015.4
20260507101031 9 10 3.2 4.8 0.00 0.56 0.00 69 1015.3
20260507100038 9 0.0 0.0 0.00 0.56 0.00 68 1015.3
20260507095023 10 32 0.0 3.2 0.00 0.56 0.00 68 1015.2
20260507094037 10 0.0 0.0 0.00 0.56 0.00 68 1015.2
20260507093017 10 327 3.2 6.4 0.00 0.56 0.00 69 1015.2
20260507092022 10 317 3.2 6.4 0.00 0.56 0.00 68 1015.1
20260507091026 10 1 3.2 6.4 0.00 0.56 0.00 68 1014.9
20260507090031 10 5 4.8 6.4 0.00 0.56 0.00 68 1014.7